Wetterstats.de || Aktuelle Messwerte || Aktuelle Wetterkarten NEU! || Radar / Satellit NEU! || Wetterarchiv || Langzeitwerte NEU! || Klim. Kenntage || Met. Ereignisse || Agrarwerte || Echtzeitwerte

Monatsübersicht für September 2020 Diagramm
 
Wetter Information zur Wetteranzeige
Zeitraffer
Tageslänge (hh:mm)
Höchsttemperatur in °C
Uhrzeit
Tiefsttemperatur in °C
Uhrzeit
Luftfeuchte (max., in %)
Uhrzeit
Luftfeuchte (min., in %)
Uhrzeit
Luftdruck (max., in hPa)
Uhrzeit
Luftdruck (min., in hPa)
Uhrzeit
Luftdruck (Ø, in hPa)
Regenrate (max, mm/h)
Uhrzeit
Niederschlag in mm
Verdunstung in mm
Solar in W/m² (Ø)
Solar in W/m² (max.)
UV-Index (max.)
Sonnenscheindauer (hh:mm)
Windrichtung (Ø)
Windstärke (Ø in km/h)
Windstärke (Ø in bft)
Windböe (max., in km/h)
Uhrzeit
Windböe (max., in bft)
Uhrzeit
Taupunkt (max., in °C)
Uhrzeit
Taupunkt (min., in °C)
Uhrzeit
Windchill (min., in °C)
Uhrzeit
Gewitterindex (max.)
Uhrzeit
Waldbrandindex (max.)
Uhrzeit
Graslandfeuerindex (max.)
Uhrzeit
Staubsturm-Index (max.)
Uhrzeit
01
Zeitraffer
13:40
18.7
15:05 Uhr
11.0
06:35 Uhr

94
06:40 Uhr
49
16:15 Uhr
1018.8
07:00 Uhr

1017.0
16:50 Uhr
1018.1
0,000
00:00 Uhr
0,000
1.778
194
758
11:05 Uhr
2.6
13:00 Uhr

04:01:00
2,1
1
25,7
11:40 Uhr

4
13.2
09:55 Uhr
7.5
16:15 Uhr
11.0
06:35 Uhr
4
00:00 Uhr
0.0
00:00 Uhr
1.3
16:30 Uhr
0.0
00:00 Uhr
02
Zeitraffer
13:35
19.1
13:30 Uhr
11.7
04:00 Uhr

94
20:40 Uhr
68
13:40 Uhr
1017.8
00:00 Uhr

1015.9
15:20 Uhr
1016.9
19,200
16:05 Uhr
9,600
0.813
109
494
09:15 Uhr
2.9
13:30 Uhr

00:57:00
0,1
0
11,3
16:05 Uhr

2
14.8
14:50 Uhr
9.8
03:20 Uhr
11.7
04:00 Uhr
6
14:10 Uhr
0.0
00:00 Uhr
1.0
11:20 Uhr
0.0
00:00 Uhr
03
Zeitraffer
13:32
22.8
15:10 Uhr
13.2
07:00 Uhr

96
03:20 Uhr
46
16:00 Uhr
1019.7
12:20 Uhr

1017.4
02:15 Uhr
1018.6
2,400
00:15 Uhr
2,800
2.108
259
719
13:45 Uhr
3.0
13:30 Uhr

05:56:00
0,1
0
12,9
19:15 Uhr

2
14.4
09:00 Uhr
9.7
19:10 Uhr
13.2
07:00 Uhr
8
22:50 Uhr
0.0
00:00 Uhr
0.0
00:00 Uhr
0.0
00:00 Uhr
04
Zeitraffer
13:28
22.3
16:10 Uhr
15.9
01:10 Uhr

96
05:35 Uhr
61
15:25 Uhr
1020.6
11:10 Uhr

1017.8
04:35 Uhr
1019.2
4,800
03:25 Uhr
3,400
0.787
94
629
12:15 Uhr
2.7
12:30 Uhr

00:34:00
0,1
0
8,0
17:20 Uhr

2
17.7
11:45 Uhr
14.0
15:25 Uhr
15.9
01:10 Uhr
11
23:40 Uhr
0.0
00:00 Uhr
0.0
00:00 Uhr
0.0
00:00 Uhr
05
Zeitraffer
13:23
18.7
00:05 Uhr
13.3
22:45 Uhr

96
08:30 Uhr
74
15:10 Uhr
1018.3
00:00 Uhr

1014.7
07:25 Uhr
1016.5
7,200
07:40 Uhr
3,200
0.483
65
186
14:20 Uhr
1.3
13:55 Uhr

00:00:00
0,1
0
3,2
07:45 Uhr

1
16.9
04:45 Uhr
11.7
22:40 Uhr
13.3
22:45 Uhr
11
00:20 Uhr
0.0
00:00 Uhr
0.0
00:00 Uhr
0.0
00:00 Uhr
06
Zeitraffer
13:20
21.7
12:50 Uhr
11.6
05:50 Uhr

92
05:25 Uhr
49
12:50 Uhr
1020.0
23:00 Uhr

1016.9
00:05 Uhr
1018.1
0,000
00:00 Uhr
0,000
1.778
217
734
12:50 Uhr
3.1
12:45 Uhr

05:33:00
0,3
0
8,0
09:25 Uhr

2
12.4
00:35 Uhr
8.6
16:00 Uhr
11.6
05:50 Uhr
5
00:00 Uhr
0.0
00:00 Uhr
0.0
00:00 Uhr
0.0
00:00 Uhr
07
Zeitraffer
13:16
19.7
14:25 Uhr
12.0
02:20 Uhr

86
06:55 Uhr
48
16:30 Uhr
1024.9
22:55 Uhr

1020.0
00:00 Uhr
1022.7
0,000
00:00 Uhr
0,000
1.194
123
662
13:20 Uhr
2.8
13:30 Uhr

01:53:00
0,2
0
9,7
14:55 Uhr

2
12.9
12:45 Uhr
8.0
16:10 Uhr
12.0
02:20 Uhr
4
10:15 Uhr
0.0
00:00 Uhr
1.3
16:35 Uhr
0.0
00:00 Uhr
08
Zeitraffer
13:11
22.7
14:55 Uhr
12.2
00:45 Uhr

86
00:50 Uhr
51
13:30 Uhr
1025.0
22:45 Uhr

1022.9
14:30 Uhr
1024.0
0,000
00:00 Uhr
0,000
1.473
156
456
10:30 Uhr
2.6
12:55 Uhr

01:49:00
0,3
0
11,3
13:45 Uhr

2
14.7
19:00 Uhr
8.9
04:35 Uhr
12.2
00:45 Uhr
8
20:15 Uhr
0.0
00:00 Uhr
1.7
14:40 Uhr
0.0
00:00 Uhr
09
Zeitraffer
13:08
25.1
14:55 Uhr
15.6
06:25 Uhr

92
06:25 Uhr
60
13:40 Uhr
1024.9
00:10 Uhr

1016.1
20:30 Uhr
1020.1
4,800
23:55 Uhr
0,400
1.168
133
613
12:30 Uhr
3.1
12:20 Uhr

01:07:00
0,2
0
12,9
23:55 Uhr

2
17.4
23:30 Uhr
14.1
06:40 Uhr
15.6
06:25 Uhr
12
23:30 Uhr
1.0
14:20 Uhr
2.0
13:45 Uhr
0.0
00:00 Uhr
10
Zeitraffer
13:03
20.6
12:45 Uhr
11.3
23:50 Uhr

91
00:20 Uhr
48
14:40 Uhr
1022.3
10:50 Uhr

1017.0
00:00 Uhr
1020.5
2,400
00:10 Uhr
0,400
1.676
206
703
12:40 Uhr
2.8
12:35 Uhr

05:10:00
0,4
0
9,7
15:00 Uhr

2
16.5
00:00 Uhr
8.2
15:00 Uhr
11.3
23:50 Uhr
10
00:00 Uhr
0.6
14:50 Uhr
1.8
14:50 Uhr
0.0
00:00 Uhr
11
Zeitraffer
12:59
22.8
12:35 Uhr
10.2
02:10 Uhr

89
01:45 Uhr
42
12:40 Uhr
1020.5
00:00 Uhr

1016.6
19:20 Uhr
1018.5
0,000
00:00 Uhr
0,000
1.753
215
586
13:10 Uhr
2.3
12:20 Uhr

05:02:00
0,7
0
14,5
10:40 Uhr

3
11.0
19:25 Uhr
8.0
12:40 Uhr
10.2
02:10 Uhr
3
20:05 Uhr
0.7
12:40 Uhr
2.0
15:30 Uhr
0.0
00:00 Uhr
12
Zeitraffer
12:56
25.6
16:20 Uhr
10.2
06:55 Uhr

91
06:00 Uhr
47
12:55 Uhr
1022.1
23:50 Uhr

1016.8
15:50 Uhr
1018.1
0,000
00:00 Uhr
0,000
1.753
197
555
12:15 Uhr
2.2
12:10 Uhr

05:05:00
0,4
0
12,9
10:35 Uhr

2
14.0
18:20 Uhr
8.7
06:55 Uhr
10.2
06:55 Uhr
7
20:05 Uhr
0.9
16:25 Uhr
2.2
14:00 Uhr
0.0
00:00 Uhr
13
Zeitraffer
12:51
23.8
16:10 Uhr
12.5
06:15 Uhr

88
06:45 Uhr
50
14:25 Uhr
1026.9
23:45 Uhr

1021.9
00:00 Uhr
1025.1
0,000
00:00 Uhr
0,000
1.600
184
562
12:50 Uhr
2.6
12:40 Uhr

04:25:00
0,1
0
8,0
14:10 Uhr

2
14.2
11:00 Uhr
10.4
06:05 Uhr
12.5
06:15 Uhr
7
20:00 Uhr
1.0
14:50 Uhr
2.2
14:50 Uhr
0.0
00:00 Uhr
14
Zeitraffer
12:47
28.4
16:30 Uhr
12.8
06:25 Uhr

90
04:00 Uhr
43
15:05 Uhr
1028.7
10:40 Uhr

1025.1
19:20 Uhr
1026.9
0,000
00:00 Uhr
0,000
1.905
219
569
12:35 Uhr
2.5
12:35 Uhr

06:24:00
0,5
0
12,9
16:20 Uhr

2
16.5
20:35 Uhr
11.2
06:00 Uhr
12.8
06:25 Uhr
10
20:00 Uhr
1.5
15:20 Uhr
2.9
15:50 Uhr
0.0
00:00 Uhr
15
Zeitraffer
12:44
29.9
17:15 Uhr
16.5
06:10 Uhr

87
05:45 Uhr
44
17:50 Uhr
1025.2
00:00 Uhr

1018.3
23:40 Uhr
1021.7
0,000
00:00 Uhr
0,000
2.159
197
546
12:45 Uhr
2.4
12:45 Uhr

05:49:00
1,6
0
20,9
14:40 Uhr

4
17.7
12:25 Uhr
14.1
06:10 Uhr
16.5
06:10 Uhr
11
20:20 Uhr
1.7
15:25 Uhr
3.5
18:00 Uhr
0.0
00:00 Uhr


 
Wetter Information zur Wetteranzeige
Zeitraffer
Tageslänge (hh:mm)
Höchsttemperatur in °C
Uhrzeit
Tiefsttemperatur in °C
Uhrzeit
Luftfeuchte (max., in %)
Uhrzeit
Luftfeuchte (min., in %)
Uhrzeit
Luftdruck (max., in hPa)
Uhrzeit
Luftdruck (min., in hPa)
Uhrzeit
Luftdruck (Ø, in hPa)
Regenrate (max, mm/h)
Uhrzeit
Niederschlag in mm
Verdunstung in mm
Solar in W/m² (Ø)
Solar in W/m² (max.)
UV-Index (max.)
Sonnenscheindauer (hh:mm)
Windrichtung (Ø)
Windstärke (Ø in km/h)
Windstärke (Ø in bft)
Windböe (max., in km/h)
Uhrzeit
Windböe (max., in bft)
Uhrzeit
Taupunkt (max., in °C)
Uhrzeit
Taupunkt (min., in °C)
Uhrzeit
Windchill (min., in °C)
Uhrzeit
Gewitterindex (max.)
Uhrzeit
Waldbrandindex (max.)
Uhrzeit
Graslandfeuerindex (max.)
Uhrzeit
Staubsturm-Index (max.)
Uhrzeit
16
Zeitraffer
12:39
29.2
15:20 Uhr
16.3
06:30 Uhr

89
05:35 Uhr
42
16:50 Uhr
1020.6
23:50 Uhr

1015.8
17:55 Uhr
1017.2
0,000
00:00 Uhr
0,000
2.057
212
551
12:40 Uhr
2.4
12:15 Uhr

05:53:00
0,5
0
14,5
21:50 Uhr

3
18.6
12:05 Uhr
13.4
17:00 Uhr
16.3
06:30 Uhr
11
19:55 Uhr
2.1
14:50 Uhr
4.4
14:55 Uhr
0.0
00:00 Uhr
17
Zeitraffer
12:35
18.9
13:00 Uhr
10.4
23:40 Uhr

83
05:45 Uhr
40
15:55 Uhr
1031.1
23:00 Uhr

1020.6
00:00 Uhr
1027.5
0,000
00:00 Uhr
0,000
2.083
220
576
12:45 Uhr
2.5
12:30 Uhr

05:24:00
3,8
1
29,0
16:00 Uhr

4
14.7
00:00 Uhr
4.4
13:45 Uhr
10.4
23:40 Uhr
8
00:00 Uhr
1.8
14:15 Uhr
4.0
15:00 Uhr
0.7
16:00 Uhr
18
Zeitraffer
12:31
19.3
16:30 Uhr
6.5
06:00 Uhr

86
06:15 Uhr
34
16:15 Uhr
1031.3
09:45 Uhr

1027.3
23:55 Uhr
1029.6
0,000
00:00 Uhr
0,000
1.829
226
590
12:45 Uhr
2.8
12:35 Uhr

06:29:00
1,1
0
14,5
16:45 Uhr

3
8.0
09:55 Uhr
2.7
16:15 Uhr
6.5
06:00 Uhr
0
00:00 Uhr
2.3
16:10 Uhr
4.6
16:50 Uhr
0.5
16:50 Uhr
19
Zeitraffer
12:27
20.4
15:35 Uhr
7.2
07:15 Uhr

82
06:30 Uhr
34
13:55 Uhr
1027.3
00:00 Uhr

1021.3
19:20 Uhr
1024.1
0,000
00:00 Uhr
0,000
2.134
209
496
12:00 Uhr
2.3
12:55 Uhr

05:41:00
2,2
1
20,9
14:45 Uhr

4
6.8
09:55 Uhr
3.5
13:55 Uhr
7.2
07:15 Uhr
0
00:00 Uhr
2.4
15:15 Uhr
4.8
18:00 Uhr
1.2
14:45 Uhr
20
Zeitraffer
12:23
22.2
16:45 Uhr
8.7
06:50 Uhr

78
06:50 Uhr
33
17:00 Uhr
1021.8
00:00 Uhr

1018.8
18:05 Uhr
1020.3
0,000
00:00 Uhr
0,000
2.007
200
567
13:00 Uhr
2.2
13:00 Uhr

05:55:00
2,5
1
22,5
12:15 Uhr

4
8.6
13:50 Uhr
5.0
06:45 Uhr
8.7
06:50 Uhr
0
00:00 Uhr
2.5
16:55 Uhr
4.9
17:00 Uhr
1.1
17:15 Uhr
21
Zeitraffer
12:19
23.8
16:55 Uhr
8.8
05:55 Uhr

84
05:55 Uhr
41
16:00 Uhr
1019.6
00:00 Uhr

1015.6
23:50 Uhr
1018.1
0,000
00:00 Uhr
0,000
1.880
212
547
12:50 Uhr
2.3
12:50 Uhr

06:10:00
1,2
0
16,1
11:45 Uhr

3
11.1
13:50 Uhr
6.1
06:45 Uhr
8.8
05:55 Uhr
4
19:40 Uhr
2.4
16:50 Uhr
4.8
16:00 Uhr
0.6
16:00 Uhr
22
Zeitraffer
12:15
25.1
17:00 Uhr
11.5
07:05 Uhr

86
06:40 Uhr
43
17:00 Uhr
1015.6
00:00 Uhr

1007.3
23:55 Uhr
1011.3
0,000
00:00 Uhr
0,000
1.702
192
520
12:30 Uhr
2.0
12:20 Uhr

05:32:00
0,4
0
14,5
16:35 Uhr

3
13.6
11:50 Uhr
9.1
04:00 Uhr
11.5
07:05 Uhr
6
20:50 Uhr
2.5
17:00 Uhr
5.0
17:00 Uhr
0.5
16:40 Uhr
23
Zeitraffer
12:10
26.8
13:10 Uhr
13.8
07:05 Uhr

87
06:55 Uhr
42
13:35 Uhr
1007.2
00:00 Uhr

1004.1
23:45 Uhr
1005.4
0,000
00:00 Uhr
0,000
1.753
189
538
12:00 Uhr
1.9
12:25 Uhr

04:58:00
0,1
0
8,0
10:10 Uhr

2
15.0
10:45 Uhr
11.6
06:50 Uhr
13.8
07:05 Uhr
7
19:35 Uhr
2.5
13:35 Uhr
5.1
16:00 Uhr
0.2
13:25 Uhr
24
Zeitraffer
12:07
22.7
12:50 Uhr
14.1
23:30 Uhr

80
01:30 Uhr
46
16:15 Uhr
1005.4
15:05 Uhr

1002.9
07:10 Uhr
1004.0
0,000
00:00 Uhr
0,000
1.143
102
396
09:45 Uhr
1.5
12:45 Uhr

00:42:00
0,5
0
12,9
08:40 Uhr

2
14.5
12:50 Uhr
9.4
16:35 Uhr
14.1
23:30 Uhr
6
12:50 Uhr
2.3
16:35 Uhr
4.7
16:15 Uhr
0.0
00:00 Uhr
25
Zeitraffer
12:03
15.9
15:25 Uhr
11.1
23:35 Uhr

96
11:05 Uhr
74
17:50 Uhr
1003.0
00:00 Uhr

996.6
11:25 Uhr
998.1
21,600
05:30 Uhr
10,800
0.406
42
163
14:35 Uhr
0.8
14:35 Uhr

00:00:00
0,1
0
8,0
03:35 Uhr

2
14.2
14:00 Uhr
9.9
22:45 Uhr
11.1
23:35 Uhr
5
13:05 Uhr
1.2
00:00 Uhr
3.4
00:00 Uhr
0.0
00:00 Uhr
26
Zeitraffer
11:58
11.7
02:20 Uhr
9.7
23:35 Uhr

96
17:45 Uhr
83
03:35 Uhr
997.6
00:20 Uhr

988.8
18:25 Uhr
994.7
7,200
15:05 Uhr
17,400
0.127
27
75
10:55 Uhr
0.0
00:00 Uhr

00:00:00
0,5
0
11,3
23:35 Uhr

2
10.8
19:05 Uhr
8.4
04:05 Uhr
9.7
23:35 Uhr
3
19:30 Uhr
0.0
00:00 Uhr
0.0
00:00 Uhr
0.0
00:00 Uhr
27
Zeitraffer
11:55
13.3
15:10 Uhr
7.7
06:25 Uhr

94
00:00 Uhr
72
15:20 Uhr
1009.3
23:40 Uhr

997.7
00:00 Uhr
1003.9
2,400
00:45 Uhr
0,400
0.483
83
240
13:10 Uhr
1.1
13:10 Uhr

00:00:00
0,5
0
16,1
00:40 Uhr

3
9.9
23:25 Uhr
6.3
06:25 Uhr
6.6
02:00 Uhr
2
19:30 Uhr
0.0
00:00 Uhr
0.0
00:00 Uhr
0.0
00:00 Uhr
28
Zeitraffer
11:51
17.7
16:15 Uhr
9.9
07:15 Uhr

96
03:10 Uhr
54
13:35 Uhr
1014.8
23:40 Uhr

1009.2
00:10 Uhr
1011.7
2,400
00:00 Uhr
2,000
1.499
193
534
12:55 Uhr
1.8
12:25 Uhr

05:29:00
1,2
0
19,3
12:50 Uhr

3
10.3
10:15 Uhr
7.9
13:45 Uhr
9.9
07:15 Uhr
2
00:00 Uhr
0.0
00:00 Uhr
0.0
00:00 Uhr
0.0
00:00 Uhr
29
Zeitraffer
11:46
18.4
13:05 Uhr
11.4
23:55 Uhr

88
06:15 Uhr
56
12:55 Uhr
1017.8
21:55 Uhr

1014.5
02:05 Uhr
1016.1
0,000
00:00 Uhr
0,000
0.864
109
548
12:20 Uhr
1.8
13:00 Uhr

00:52:00
0,4
0
12,9
11:35 Uhr

2
10.9
08:40 Uhr
8.8
12:40 Uhr
11.4
23:55 Uhr
3
06:15 Uhr
0.0
00:00 Uhr
0.0
00:00 Uhr
0.0
00:00 Uhr
30
Zeitraffer
11:42
19.0
17:00 Uhr
8.9
06:15 Uhr

94
06:30 Uhr
53
14:05 Uhr
1017.5
00:20 Uhr

1013.9
23:55 Uhr
1016.2
0,000
00:00 Uhr
0,000
1.168
177
512
13:00 Uhr
1.9
12:50 Uhr

04:31:00
0,3
0
12,9
17:15 Uhr

2
12.6
10:00 Uhr
7.8
07:10 Uhr
8.9
06:15 Uhr
5
19:20 Uhr
0.0
00:00 Uhr
1.0
14:10 Uhr
0.0
00:00 Uhr
Stationsstandorte || Wetterblog || Wissenswertes || Downloads || Seitenhistorie || Partner || Impressum / Datenschutz